DB0XIN-6 Weather Reports


Display with metric or nautical units.
time (UTC)temp
F
wind
direction
speed
MPH
gust
MPH
rain 1hr
in
rain 24hr
in
rain mn
in
humidity
%
barometer
mb
20200328160152 64 26 4.0 4.0 0.00 0.00 0.00 24 1016.0
20200328154145 65 59 6.0 6.0 0.00 0.00 0.00 24 1016.0
20200328152133 66 11 2.0 6.0 0.00 0.00 0.00 24 1016.0
20200328150123 66 33 5.0 5.0 0.00 0.00 0.00 24 1016.0
20200328144109 66 42 5.0 6.0 0.00 0.00 0.00 24 1016.0
20200328142055 66 18 4.0 4.0 0.00 0.00 0.00 24 1016.0
20200328140046 65 29 4.0 4.0 0.00 0.00 0.00 25 1016.0
20200328134037 66 30 3.0 5.0 0.00 0.00 0.00 24 1016.0
20200328132031 65 351 5.0 5.0 0.00 0.00 0.00 25 1017.0
20200328130020 65 18 4.0 4.0 0.00 0.00 0.00 26 1017.0
20200328122012 65 356 4.0 4.0 0.00 0.00 0.00 27 1017.0
20200328120011 63 56 2.0 6.0 0.00 0.00 0.00 28 1017.0
20200328114011 62 326 4.0 4.0 0.00 0.00 0.00 28 1017.0
20200328112001 62 246 3.0 3.0 0.00 0.00 0.00 30 1018.0
20200328110047 61 75 3.0 3.0 0.00 0.00 0.00 32 1018.0
20200328103954 60 50 4.0 4.0 0.00 0.00 0.00 33 1018.0
20200328101954 59 55 2.0 3.0 0.00 0.00 0.00 34 1018.0
20200328095954 57 63 3.0 4.0 0.00 0.00 0.00 35 1018.0
20200328085953 54 38 4.0 4.0 0.00 0.00 0.00 36 1018.0
20200328083953 53 50 4.0 4.0 0.00 0.00 0.00 37 1018.0
20200328081954 52 61 2.0 4.0 0.00 0.00 0.00 38 1018.0
20200328075953 51 31 3.0 3.0 0.00 0.00 0.00 38 1018.0
20200328073954 50 77 2.0 2.0 0.00 0.00 0.00 39 1018.0
20200328065953 48 13 0.0 3.0 0.00 0.00 0.00 41 1018.0
20200328063953 48 17 2.0 4.0 0.00 0.00 0.00 42 1018.0
20200328061953 47 23 2.0 4.0 0.00 0.00 0.00 43 1018.0